Time,TemperatureF,DewpointF,PressureIn,WindDirection,WindDirectionDegrees,WindSpeedMPH,WindSpeedGustMPH,Humidity,HourlyPrecipIn,Conditions,Clouds,dailyrainin,SoftwareType,DateUTC
2013-04-09 00:00:00,35.7,34.7,30.03,NNW,346,0.0,2.0,96,0.00,,,0.18,Wunderground v.1.15,2013-04-09 04:00:00,
2013-04-09 00:05:00,35.7,34.7,30.04,NNW,346,0.0,2.0,96,0.00,,,0.18,Wunderground v.1.15,2013-04-09 04:05:00,
2013-04-09 00:10:00,35.7,34.7,30.04,NNW,346,0.0,2.0,96,0.00,,,0.18,Wunderground v.1.15,2013-04-09 04:10:00,
2013-04-09 00:15:00,35.8,34.8,30.04,NNW,346,0.0,2.0,96,0.00,,,0.00,Wunderground v.1.15,2013-04-09 04:15:00,
2013-04-09 00:20:00,35.7,34.7,30.04,NNW,346,0.0,2.0,96,0.00,,,0.00,Wunderground v.1.15,2013-04-09 04:20:00,
2013-04-09 00:25:00,35.7,34.7,30.05,NNW,346,0.0,2.0,96,0.00,,,0.00,Wunderground v.1.15,2013-04-09 04:25:00,
2013-04-09 00:30:00,35.7,34.7,30.05,NNW,346,0.0,2.0,96,0.00,,,0.00,Wunderground v.1.15,2013-04-09 04:30:00,
2013-04-09 00:35:00,35.7,34.7,30.05,NNW,346,0.0,2.0,96,0.00,,,0.00,Wunderground v.1.15,2013-04-09 04:35:00,
2013-04-09 00:40:00,35.8,34.8,30.06,NNW,346,0.0,2.0,96,0.00,,,0.00,Wunderground v.1.15,2013-04-09 04:40:00,
2013-04-09 00:45:00,35.8,34.8,30.05,NNW,346,0.0,2.0,96,0.00,,,0.00,Wunderground v.1.15,2013-04-09 04:45:00,
2013-04-09 00:50:00,35.8,34.8,30.06,NNW,346,0.0,2.0,96,0.00,,,0.00,Wunderground v.1.15,2013-04-09 04:50:00,
2013-04-09 00:55:00,35.7,34.7,30.06,NNW,346,0.0,2.0,96,0.00,,,0.00,Wunderground v.1.15,2013-04-09 04:55:00,
2013-04-09 01:00:00,35.7,34.7,30.06,NNW,346,0.0,2.0,96,0.00,,,0.00,Wunderground v.1.15,2013-04-09 05:00:00,
2013-04-09 01:05:00,35.6,34.6,30.06,NNW,346,0.0,2.0,96,0.00,,,0.00,Wunderground v.1.15,2013-04-09 05:05:00,
2013-04-09 01:10:00,35.5,34.5,30.06,NNW,346,0.0,2.0,96,0.00,,,0.00,Wunderground v.1.15,2013-04-09 05:10:00,
2013-04-09 01:15:00,35.5,34.5,30.07,NNW,346,0.0,2.0,96,0.00,,,0.00,Wunderground v.1.15,2013-04-09 05:15:00,
2013-04-09 01:20:00,35.5,34.5,30.07,NNW,346,0.0,2.0,96,0.00,,,0.00,Wunderground v.1.15,2013-04-09 05:20:00,
2013-04-09 01:30:00,35.4,34.4,30.07,NNW,346,0.0,2.0,96,0.00,,,0.00,Wunderground v.1.15,2013-04-09 05:30:00,
2013-04-09 01:35:00,35.4,34.4,30.07,NNW,346,0.0,2.0,96,0.00,,,0.00,Wunderground v.1.15,2013-04-09 05:35:00,
2013-04-09 01:40:00,35.5,34.5,30.07,NNW,346,0.0,2.0,96,0.00,,,0.00,Wunderground v.1.15,2013-04-09 05:40:00,
2013-04-09 01:45:00,35.4,34.4,30.07,NNW,346,0.0,2.0,96,0.00,,,0.00,Wunderground v.1.15,2013-04-09 05:45:00,
2013-04-09 01:50:00,35.3,34.3,30.07,NNW,346,0.0,2.0,96,0.00,,,0.00,Wunderground v.1.15,2013-04-09 05:50:00,
2013-04-09 02:00:00,35.3,34.3,30.07,NNW,346,0.0,2.0,96,0.00,,,0.00,Wunderground v.1.15,2013-04-09 06:00:00,
2013-04-09 02:05:00,35.3,34.3,30.07,NNW,346,0.0,2.0,96,0.00,,,0.00,Wunderground v.1.15,2013-04-09 06:05:00,
2013-04-09 02:10:00,35.2,34.2,30.07,NNW,346,0.0,2.0,96,0.00,,,0.00,Wunderground v.1.15,2013-04-09 06:10:00,
2013-04-09 02:15:00,35.2,34.2,30.07,NE,53,0.0,2.0,96,0.00,,,0.00,Wunderground v.1.15,2013-04-09 06:15:00,
2013-04-09 02:20:00,35.2,34.2,30.08,NE,53,0.0,2.0,96,0.00,,,0.00,Wunderground v.1.15,2013-04-09 06:20:00,
2013-04-09 02:25:00,35.2,34.2,30.08,NE,52,0.0,2.0,96,0.00,,,0.00,Wunderground v.1.15,2013-04-09 06:25:00,
2013-04-09 02:35:00,35.1,34.1,30.08,NE,52,0.0,2.0,96,0.00,,,0.00,Wunderground v.1.15,2013-04-09 06:35:00,
2013-04-09 02:40:00,35.1,34.1,30.07,NE,53,0.0,2.0,96,0.00,,,0.00,Wunderground v.1.15,2013-04-09 06:40:00,
2013-04-09 02:45:00,35.1,34.1,30.07,NE,52,0.0,2.0,96,0.00,,,0.00,Wunderground v.1.15,2013-04-09 06:45:00,
2013-04-09 02:50:00,35.1,34.1,30.08,NE,53,0.0,2.0,96,0.00,,,0.00,Wunderground v.1.15,2013-04-09 06:50:00,
2013-04-09 02:55:00,35.0,34.0,30.08,NE,52,0.0,2.0,96,0.00,,,0.00,Wunderground v.1.15,2013-04-09 06:55:00,
2013-04-09 03:05:00,34.9,33.9,30.09,NE,52,0.0,2.0,96,0.00,,,0.00,Wunderground v.1.15,2013-04-09 07:05:00,
2013-04-09 03:15:00,34.8,34.0,30.08,NE,53,0.0,2.0,97,0.00,,,0.00,Wunderground v.1.15,2013-04-09 07:15:00,
2013-04-09 03:20:00,34.7,33.7,30.09,NE,53,0.0,2.0,96,0.00,,,0.00,Wunderground v.1.15,2013-04-09 07:20:00,
2013-04-09 03:25:00,34.8,33.8,30.08,NE,52,0.0,2.0,96,0.00,,,0.00,Wunderground v.1.15,2013-04-09 07:25:00,
2013-04-09 03:30:00,34.7,33.7,30.08,NE,53,0.0,2.0,96,0.00,,,0.00,Wunderground v.1.15,2013-04-09 07:30:00,
2013-04-09 03:40:00,34.6,33.6,30.08,NE,53,0.0,2.0,96,0.00,,,0.00,Wunderground v.1.15,2013-04-09 07:40:00,
2013-04-09 03:50:00,34.7,33.9,30.08,NE,52,0.0,2.0,97,0.00,,,0.00,Wunderground v.1.15,2013-04-09 07:50:00,
2013-04-09 03:55:00,34.6,33.8,30.08,NE,53,0.0,2.0,97,0.00,,,0.00,Wunderground v.1.15,2013-04-09 07:55:00,
2013-04-09 04:00:00,34.6,33.8,30.09,NE,52,0.0,2.0,97,0.00,,,0.00,Wunderground v.1.15,2013-04-09 08:00:00,
2013-04-09 04:05:00,34.6,33.8,30.09,NE,53,0.0,2.0,97,0.00,,,0.00,Wunderground v.1.15,2013-04-09 08:05:00,
2013-04-09 04:15:00,34.6,33.8,30.08,NE,53,0.0,2.0,97,0.00,,,0.00,Wunderground v.1.15,2013-04-09 08:15:00,
2013-04-09 04:20:00,34.7,33.9,30.08,NE,53,0.0,2.0,97,0.00,,,0.00,Wunderground v.1.15,2013-04-09 08:20:00,
2013-04-09 04:25:00,34.7,33.9,30.09,NE,53,0.0,2.0,97,0.00,,,0.00,Wunderground v.1.15,2013-04-09 08:25:00,
2013-04-09 04:30:00,34.6,33.8,30.09,NE,52,0.0,2.0,97,0.00,,,0.00,Wunderground v.1.15,2013-04-09 08:30:00,
2013-04-09 04:35:00,34.6,33.8,30.09,NE,53,0.0,2.0,97,0.00,,,0.00,Wunderground v.1.15,2013-04-09 08:35:00,
2013-04-09 04:40:00,34.7,33.9,30.09,NE,53,0.0,2.0,97,0.00,,,0.00,Wunderground v.1.15,2013-04-09 08:40:00,
2013-04-09 04:50:00,34.8,34.0,30.09,NE,53,0.0,2.0,97,0.00,,,0.00,Wunderground v.1.15,2013-04-09 08:50:00,
2013-04-09 04:55:00,34.8,34.0,30.09,NE,53,0.0,2.0,97,0.00,,,0.00,Wunderground v.1.15,2013-04-09 08:55:00,
2013-04-09 05:00:00,34.8,34.0,30.09,NE,53,0.0,2.0,97,0.00,,,0.00,Wunderground v.1.15,2013-04-09 09:00:00,
2013-04-09 05:10:00,34.7,33.9,30.09,NE,53,0.0,2.0,97,0.00,,,0.00,Wunderground v.1.15,2013-04-09 09:10:00,
2013-04-09 05:15:00,34.7,33.9,30.09,NE,52,0.0,2.0,97,0.00,,,0.00,Wunderground v.1.15,2013-04-09 09:15:00,
2013-04-09 05:20:00,34.7,33.9,30.09,NE,53,0.0,2.0,97,0.00,,,0.00,Wunderground v.1.15,2013-04-09 09:20:00,
2013-04-09 05:25:00,34.7,33.9,30.08,NE,53,0.0,2.0,97,0.00,,,0.00,Wunderground v.1.15,2013-04-09 09:25:00,
2013-04-09 05:30:00,34.8,34.0,30.08,NE,52,0.0,2.0,97,0.00,,,0.00,Wunderground v.1.15,2013-04-09 09:30:00,
2013-04-09 05:35:00,34.7,33.9,30.09,NE,53,0.0,2.0,97,0.00,,,0.00,Wunderground v.1.15,2013-04-09 09:35:00,
2013-04-09 05:40:00,34.7,33.9,30.09,NE,53,0.0,2.0,97,0.00,,,0.00,Wunderground v.1.15,2013-04-09 09:40:00,
2013-04-09 05:45:00,34.6,33.8,30.09,NE,52,0.0,2.0,97,0.00,,,0.00,Wunderground v.1.15,2013-04-09 09:45:00,
2013-04-09 05:50:00,34.7,33.9,30.09,NE,53,0.0,2.0,97,0.00,,,0.00,Wunderground v.1.15,2013-04-09 09:50:00,
2013-04-09 06:00:00,34.7,33.9,30.09,NE,53,0.0,2.0,97,0.00,,,0.00,Wunderground v.1.15,2013-04-09 10:00:00,
2013-04-09 06:05:00,34.8,34.0,30.09,NE,53,0.0,2.0,97,0.00,,,0.00,Wunderground v.1.15,2013-04-09 10:05:00,
2013-04-09 06:10:00,34.8,34.0,30.09,NE,53,0.0,2.0,97,0.00,,,0.00,Wunderground v.1.15,2013-04-09 10:10:00,
2013-04-09 06:25:00,34.6,33.8,30.07,NE,53,0.0,2.0,97,0.00,,,0.00,Wunderground v.1.15,2013-04-09 10:25:00,
2013-04-09 06:30:00,34.6,33.8,30.08,NE,53,0.0,2.0,97,0.00,,,0.00,Wunderground v.1.15,2013-04-09 10:30:00,
2013-04-09 06:35:00,34.7,33.9,30.09,NE,52,0.0,2.0,97,0.00,,,0.00,Wunderground v.1.15,2013-04-09 10:35:00,
2013-04-09 06:40:00,34.9,34.1,30.10,NE,53,0.0,2.0,97,0.00,,,0.00,Wunderground v.1.15,2013-04-09 10:40:00,
2013-04-09 06:45:00,35.0,34.2,30.10,NE,53,0.0,2.0,97,0.00,,,0.00,Wunderground v.1.15,2013-04-09 10:45:00,
2013-04-09 06:50:00,35.0,34.2,30.10,NE,52,0.0,2.0,97,0.00,,,0.00,Wunderground v.1.15,2013-04-09 10:50:00,
2013-04-09 07:00:00,35.1,34.3,30.11,NE,53,0.0,2.0,97,0.00,,,0.00,Wunderground v.1.15,2013-04-09 11:00:00,
2013-04-09 07:10:00,35.1,34.3,30.12,NE,52,0.0,2.0,97,0.00,,,0.00,Wunderground v.1.15,2013-04-09 11:10:00,
2013-04-09 07:15:00,35.0,34.2,30.11,NE,53,0.0,2.0,97,0.00,,,0.00,Wunderground v.1.15,2013-04-09 11:15:00,
2013-04-09 07:20:00,35.0,34.2,30.11,NE,53,0.0,2.0,97,0.00,,,0.00,Wunderground v.1.15,2013-04-09 11:20:00,
2013-04-09 07:25:00,34.9,34.1,30.12,NE,52,0.0,2.0,97,0.00,,,0.00,Wunderground v.1.15,2013-04-09 11:25:00,
2013-04-09 07:30:00,35.0,34.2,30.11,NE,52,0.0,2.0,97,0.00,,,0.00,Wunderground v.1.15,2013-04-09 11:30:00,
2013-04-09 07:35:00,35.0,34.2,30.12,NE,53,0.0,2.0,97,0.00,,,0.00,Wunderground v.1.15,2013-04-09 11:35:00,
2013-04-09 07:45:00,34.9,34.1,30.11,NE,53,0.0,2.0,97,0.00,,,0.00,Wunderground v.1.15,2013-04-09 11:45:00,
2013-04-09 07:50:00,35.0,34.2,30.12,NE,52,0.0,2.0,97,0.00,,,0.00,Wunderground v.1.15,2013-04-09 11:50:00,
2013-04-09 07:55:00,35.1,34.3,30.12,NE,53,0.0,2.0,97,0.00,,,0.00,Wunderground v.1.15,2013-04-09 11:55:00,
2013-04-09 08:00:00,35.2,34.4,30.12,NE,52,0.0,2.0,97,0.00,,,0.00,Wunderground v.1.15,2013-04-09 12:00:00,
2013-04-09 08:05:00,35.3,34.5,30.13,NE,52,0.0,2.0,97,0.00,,,0.00,Wunderground v.1.15,2013-04-09 12:05:00,
2013-04-09 08:10:00,35.4,34.6,30.13,NE,52,0.0,2.0,97,0.00,,,0.00,Wunderground v.1.15,2013-04-09 12:10:00,
2013-04-09 08:15:00,35.5,34.7,30.13,NE,53,0.0,2.0,97,0.00,,,0.00,Wunderground v.1.15,2013-04-09 12:15:00,
2013-04-09 08:20:00,35.7,34.9,30.12,NE,52,0.0,2.0,97,0.00,,,0.00,Wunderground v.1.15,2013-04-09 12:20:00,
2013-04-09 08:25:00,35.8,35.0,30.12,NE,53,0.0,2.0,97,0.00,,,0.00,Wunderground v.1.15,2013-04-09 12:25:00,
2013-04-09 08:30:00,35.9,35.1,30.12,NE,52,0.0,2.0,97,0.00,,,0.00,Wunderground v.1.15,2013-04-09 12:30:00,
2013-04-09 08:35:00,36.0,35.2,30.12,NE,52,0.0,2.0,97,0.00,,,0.00,Wunderground v.1.15,2013-04-09 12:35:00,
2013-04-09 08:40:00,36.1,35.3,30.12,NE,52,0.0,2.0,97,0.00,,,0.00,Wunderground v.1.15,2013-04-09 12:40:00,
2013-04-09 08:45:00,36.2,35.4,30.12,NE,53,0.0,2.0,97,0.00,,,0.00,Wunderground v.1.15,2013-04-09 12:45:00,
2013-04-09 08:55:00,36.6,35.8,30.11,NE,52,0.0,2.0,97,0.00,,,0.00,Wunderground v.1.15,2013-04-09 12:55:00,
2013-04-09 09:00:00,36.8,36.0,30.11,NE,53,0.0,2.0,97,0.00,,,0.00,Wunderground v.1.15,2013-04-09 13:00:00,
2013-04-09 09:10:00,37.1,36.3,30.10,NE,52,0.0,2.0,97,0.00,,,0.00,Wunderground v.1.15,2013-04-09 13:10:00,
2013-04-09 09:15:00,37.2,36.4,30.11,NE,52,0.0,2.0,97,0.00,,,0.00,Wunderground v.1.15,2013-04-09 13:15:00,
2013-04-09 09:20:00,37.3,36.5,30.10,NE,52,0.0,2.0,97,0.00,,,0.00,Wunderground v.1.15,2013-04-09 13:20:00,
2013-04-09 09:25:00,37.2,36.4,30.10,NE,53,0.0,2.0,97,0.00,,,0.00,Wunderground v.1.15,2013-04-09 13:25:00,
2013-04-09 09:30:00,37.1,36.3,30.10,NE,53,0.0,2.0,97,0.00,,,0.00,Wunderground v.1.15,2013-04-09 13:30:00,
2013-04-09 09:35:00,37.2,36.4,30.10,NE,52,0.0,2.0,97,0.00,,,0.00,Wunderground v.1.15,2013-04-09 13:35:00,
2013-04-09 09:40:00,37.2,36.4,30.10,NE,53,0.0,2.0,97,0.00,,,0.00,Wunderground v.1.15,2013-04-09 13:40:00,
2013-04-09 09:45:00,37.3,36.5,30.11,NE,52,0.0,2.0,97,0.00,,,0.00,Wunderground v.1.15,2013-04-09 13:45:00,
2013-04-09 09:55:00,37.5,36.7,30.11,NE,53,0.0,2.0,97,0.00,,,0.00,Wunderground v.1.15,2013-04-09 13:55:00,
2013-04-09 10:05:00,37.7,36.9,30.10,NE,53,0.0,2.0,97,0.00,,,0.00,Wunderground v.1.15,2013-04-09 14:05:00,
2013-04-09 10:10:00,37.9,37.1,30.10,NE,53,0.0,2.0,97,0.00,,,0.00,Wunderground v.1.15,2013-04-09 14:10:00,
2013-04-09 10:15:00,37.9,37.1,30.10,NE,52,0.0,2.0,97,0.00,,,0.00,Wunderground v.1.15,2013-04-09 14:15:00,
2013-04-09 10:20:00,38.1,37.3,30.10,NE,53,0.0,2.0,97,0.00,,,0.00,Wunderground v.1.15,2013-04-09 14:20:00,
2013-04-09 10:30:00,38.6,37.8,30.11,NE,53,0.0,2.0,97,0.00,,,0.00,Wunderground v.1.15,2013-04-09 14:30:00,
2013-04-09 10:35:00,38.4,37.6,30.10,NE,53,0.0,2.0,97,0.00,,,0.00,Wunderground v.1.15,2013-04-09 14:35:00,
2013-04-09 10:40:00,38.2,37.4,30.10,NE,53,0.0,2.0,97,0.00,,,0.00,Wunderground v.1.15,2013-04-09 14:40:00,
2013-04-09 10:45:00,38.1,37.1,30.11,NE,52,0.0,2.0,96,0.00,,,0.00,Wunderground v.1.15,2013-04-09 14:45:00,
2013-04-09 10:50:00,38.0,37.0,30.10,NE,52,0.0,2.0,96,0.00,,,0.00,Wunderground v.1.15,2013-04-09 14:50:00,
2013-04-09 10:55:00,38.0,37.0,30.10,NE,52,0.0,2.0,96,0.00,,,0.00,Wunderground v.1.15,2013-04-09 14:55:00,
2013-04-09 11:05:00,38.6,37.6,30.08,NNW,342,0.0,2.0,96,0.00,,,0.00,Wunderground v.1.15,2013-04-09 15:05:00,
2013-04-09 11:15:00,39.4,38.4,30.07,NNW,337,0.0,2.0,96,0.00,,,0.00,Wunderground v.1.15,2013-04-09 15:15:00,
2013-04-09 11:20:00,39.8,38.8,30.07,NNW,337,0.0,2.0,96,0.00,,,0.00,Wunderground v.1.15,2013-04-09 15:20:00,
2013-04-09 11:25:00,40.0,39.0,30.08,NNW,336,0.0,2.0,96,0.00,,,0.00,Wunderground v.1.15,2013-04-09 15:25:00,
2013-04-09 11:35:00,40.4,39.1,30.09,NNW,336,0.0,2.0,95,0.00,,,0.00,Wunderground v.1.15,2013-04-09 15:35:00,
2013-04-09 11:40:00,39.4,37.5,30.09,West,273,0.0,2.0,93,0.00,,,0.00,Wunderground v.1.15,2013-04-09 15:40:00,
2013-04-09 11:45:00,38.1,36.3,30.10,West,272,1.0,2.0,93,0.00,,,0.00,Wunderground v.1.15,2013-04-09 15:45:00,
2013-04-09 11:50:00,37.6,36.0,30.10,West,272,1.0,2.0,94,0.00,,,0.00,Wunderground v.1.15,2013-04-09 15:50:00,
2013-04-09 11:55:00,37.3,35.7,30.11,West,272,1.0,2.0,94,0.00,,,0.00,Wunderground v.1.15,2013-04-09 15:55:00,
2013-04-09 12:00:00,37.2,35.9,30.11,West,272,0.0,2.0,95,0.00,,,0.00,Wunderground v.1.15,2013-04-09 16:00:00,
2013-04-09 12:10:00,37.0,35.7,30.11,West,270,0.0,2.0,95,0.00,,,0.00,Wunderground v.1.15,2013-04-09 16:10:00,
2013-04-09 12:15:00,37.0,35.7,30.11,West,270,0.0,2.0,95,0.00,,,0.00,Wunderground v.1.15,2013-04-09 16:15:00,
2013-04-09 12:20:00,37.1,36.1,30.11,West,269,0.0,2.0,96,0.00,,,0.00,Wunderground v.1.15,2013-04-09 16:20:00,
2013-04-09 12:25:00,37.1,36.1,30.11,West,270,0.0,2.0,96,0.00,,,0.00,Wunderground v.1.15,2013-04-09 16:25:00,
2013-04-09 12:35:00,37.0,36.0,30.11,West,272,0.0,2.0,96,0.00,,,0.00,Wunderground v.1.15,2013-04-09 16:35:00,
2013-04-09 12:40:00,37.0,36.0,30.11,West,273,1.0,1.0,96,0.00,,,0.00,Wunderground v.1.15,2013-04-09 16:40:00,
2013-04-09 12:45:00,37.1,36.1,30.11,West,273,1.0,2.0,96,0.00,,,0.00,Wunderground v.1.15,2013-04-09 16:45:00,
2013-04-09 12:55:00,37.4,36.4,30.10,West,273,0.0,2.0,96,0.00,,,0.00,Wunderground v.1.15,2013-04-09 16:55:00,
2013-04-09 13:00:00,37.5,36.5,30.10,West,273,0.0,2.0,96,0.00,,,0.00,Wunderground v.1.15,2013-04-09 17:00:00,
2013-04-09 13:05:00,37.5,36.5,30.10,West,272,0.0,2.0,96,0.00,,,0.00,Wunderground v.1.15,2013-04-09 17:05:00,
2013-04-09 13:10:00,37.6,36.6,30.10,NW,323,1.0,1.0,96,0.00,,,0.00,Wunderground v.1.15,2013-04-09 17:10:00,
2013-04-09 13:15:00,37.8,36.8,30.10,NW,322,1.0,2.0,96,0.00,,,0.00,Wunderground v.1.15,2013-04-09 17:15:00,
2013-04-09 13:30:00,39.7,38.7,30.10,NNW,339,0.0,2.0,96,0.00,,,0.00,Wunderground v.1.15,2013-04-09 17:30:00,
2013-04-09 13:35:00,40.2,39.2,30.10,NNW,339,0.0,2.0,96,0.00,,,0.00,Wunderground v.1.15,2013-04-09 17:35:00,
2013-04-09 13:40:00,40.6,39.3,30.09,NNE,21,0.0,2.0,95,0.00,,,0.00,Wunderground v.1.15,2013-04-09 17:40:00,
2013-04-09 13:45:00,41.0,39.7,30.08,NE,54,0.0,2.0,95,0.00,,,0.00,Wunderground v.1.15,2013-04-09 17:45:00,
2013-04-09 13:55:00,41.2,39.3,30.07,NE,53,1.0,2.0,93,0.00,,,0.00,Wunderground v.1.15,2013-04-09 17:55:00,
2013-04-09 14:05:00,41.4,39.3,30.08,NNW,346,1.0,2.0,92,0.00,,,0.00,Wunderground v.1.15,2013-04-09 18:05:00,
2013-04-09 14:10:00,41.4,39.0,30.07,East,83,1.0,1.0,91,0.00,,,0.00,Wunderground v.1.15,2013-04-09 18:10:00,
2013-04-09 14:15:00,41.4,39.0,30.07,North,355,0.0,2.0,91,0.00,,,0.00,Wunderground v.1.15,2013-04-09 18:15:00,
2013-04-09 14:20:00,41.4,39.0,30.07,NW,304,0.0,2.0,91,0.00,,,0.00,Wunderground v.1.15,2013-04-09 18:20:00,
2013-04-09 14:30:00,41.1,38.4,30.07,NE,52,0.0,2.0,90,0.00,,,0.00,Wunderground v.1.15,2013-04-09 18:30:00,
2013-04-09 14:35:00,40.9,38.2,30.07,NE,41,0.0,2.0,90,0.00,,,0.00,Wunderground v.1.15,2013-04-09 18:35:00,
2013-04-09 14:40:00,40.9,38.5,30.07,NNW,348,0.0,2.0,91,0.00,,,0.00,Wunderground v.1.15,2013-04-09 18:40:00,
2013-04-09 14:45:00,40.8,38.4,30.07,ENE,72,1.0,2.0,91,0.00,,,0.00,Wunderground v.1.15,2013-04-09 18:45:00,
2013-04-09 14:50:00,40.7,38.3,30.07,NNW,345,1.0,2.0,91,0.00,,,0.00,Wunderground v.1.15,2013-04-09 18:50:00,
2013-04-09 15:00:00,40.6,38.2,30.07,NNW,342,1.0,2.0,91,0.00,,,0.01,Wunderground v.1.15,2013-04-09 19:00:00,
2013-04-09 15:05:00,40.4,38.0,30.07,NNW,340,1.0,2.0,91,0.00,,,0.01,Wunderground v.1.15,2013-04-09 19:05:00,
2013-04-09 15:15:00,40.0,37.9,30.07,NNW,338,2.0,5.0,92,0.00,,,0.01,Wunderground v.1.15,2013-04-09 19:15:00,
2013-04-09 15:20:00,39.8,37.7,30.07,NE,38,2.0,2.0,92,0.00,,,0.02,Wunderground v.1.15,2013-04-09 19:20:00,
2013-04-09 15:25:00,39.7,37.8,30.07,NW,313,1.0,2.0,93,0.00,,,0.02,Wunderground v.1.15,2013-04-09 19:25:00,
2013-04-09 15:35:00,38.7,36.6,30.07,NNW,341,2.0,2.0,92,0.00,,,0.02,Wunderground v.1.15,2013-04-09 19:35:00,
2013-04-09 15:40:00,38.3,36.2,30.07,NNE,28,2.0,2.0,92,0.00,,,0.02,Wunderground v.1.15,2013-04-09 19:40:00,
2013-04-09 15:45:00,38.0,36.2,30.07,NW,318,2.0,5.0,93,0.00,,,0.02,Wunderground v.1.15,2013-04-09 19:45:00,
2013-04-09 15:50:00,37.6,35.8,30.07,NE,41,3.0,3.0,93,0.00,,,0.02,Wunderground v.1.15,2013-04-09 19:50:00,
2013-04-09 15:55:00,37.5,35.7,30.07,NNW,336,4.0,9.0,93,0.00,,,0.02,Wunderground v.1.15,2013-04-09 19:55:00,
2013-04-09 16:00:00,37.4,35.6,30.07,North,355,3.0,3.0,93,0.00,,,0.03,Wunderground v.1.15,2013-04-09 20:00:00,
2013-04-09 16:10:00,37.3,35.7,30.07,NW,326,2.0,2.0,94,0.00,,,0.03,Wunderground v.1.15,2013-04-09 20:10:00,
2013-04-09 16:15:00,37.2,35.6,30.07,NW,323,2.0,2.0,94,0.00,,,0.03,Wunderground v.1.15,2013-04-09 20:15:00,
2013-04-09 16:25:00,37.2,35.6,30.06,NW,309,2.0,6.0,94,0.00,,,0.04,Wunderground v.1.15,2013-04-09 20:25:00,
2013-04-09 16:30:00,37.2,35.6,30.06,NW,326,2.0,6.0,94,0.00,,,0.04,Wunderground v.1.15,2013-04-09 20:30:00,
2013-04-09 16:35:00,37.0,35.4,30.07,NNE,22,2.0,6.0,94,0.05,,,0.05,Wunderground v.1.15,2013-04-09 20:35:00,
2013-04-09 16:45:00,36.8,35.2,30.07,NW,319,3.0,3.0,94,0.08,,,0.06,Wunderground v.1.15,2013-04-09 20:45:00,
2013-04-09 16:50:00,36.8,35.2,30.07,NNW,335,3.0,6.0,94,0.05,,,0.06,Wunderground v.1.15,2013-04-09 20:50:00,
2013-04-09 16:55:00,36.8,35.2,30.07,NNW,336,4.0,6.0,94,0.05,,,0.07,Wunderground v.1.15,2013-04-09 20:55:00,
2013-04-09 17:00:00,36.8,35.2,30.07,NNW,341,5.0,5.0,94,0.12,,,0.08,Wunderground v.1.15,2013-04-09 21:00:00,
2013-04-09 17:05:00,36.8,35.5,30.07,NNW,338,4.0,5.0,95,0.11,,,0.09,Wunderground v.1.15,2013-04-09 21:05:00,
2013-04-09 17:10:00,36.8,35.5,30.07,NW,312,3.0,8.0,95,0.13,,,0.10,Wunderground v.1.15,2013-04-09 21:10:00,
2013-04-09 17:15:00,36.8,35.5,30.07,NNW,337,4.0,8.0,95,0.09,,,0.11,Wunderground v.1.15,2013-04-09 21:15:00,
2013-04-09 17:20:00,36.8,35.5,30.08,NNW,338,5.0,5.0,95,0.14,,,0.12,Wunderground v.1.15,2013-04-09 21:20:00,
2013-04-09 17:25:00,36.7,35.4,30.08,NNW,340,5.0,5.0,95,0.09,,,0.12,Wunderground v.1.15,2013-04-09 21:25:00,
2013-04-09 17:30:00,36.6,35.3,30.08,NW,310,5.0,5.0,95,0.08,,,0.13,Wunderground v.1.15,2013-04-09 21:30:00,
2013-04-09 17:35:00,36.6,35.3,30.08,NNE,12,4.0,5.0,95,0.12,,,0.14,Wunderground v.1.15,2013-04-09 21:35:00,
2013-04-09 17:45:00,36.7,35.4,30.09,NW,321,2.0,3.0,95,0.07,,,0.15,Wunderground v.1.15,2013-04-09 21:45:00,
2013-04-09 17:55:00,36.7,35.4,30.08,NW,304,3.0,3.0,95,0.06,,,0.16,Wunderground v.1.15,2013-04-09 21:55:00,
2013-04-09 18:00:00,36.7,35.4,30.09,NNW,328,3.0,4.0,95,0.05,,,0.17,Wunderground v.1.15,2013-04-09 22:00:00,
2013-04-09 18:05:00,36.8,35.5,30.09,NNW,348,2.0,4.0,95,0.07,,,0.18,Wunderground v.1.15,2013-04-09 22:05:00,
2013-04-09 18:10:00,36.8,35.5,30.09,NNW,336,1.0,2.0,95,0.07,,,0.18,Wunderground v.1.15,2013-04-09 22:10:00,
2013-04-09 18:15:00,36.8,35.5,30.09,ENE,68,1.0,2.0,95,0.06,,,0.18,Wunderground v.1.15,2013-04-09 22:15:00,
2013-04-09 18:20:00,36.9,35.6,30.09,WNW,300,1.0,3.0,95,0.04,,,0.18,Wunderground v.1.15,2013-04-09 22:20:00,
2013-04-09 18:25:00,36.9,35.6,30.09,NNW,340,2.0,5.0,95,0.04,,,0.19,Wunderground v.1.15,2013-04-09 22:25:00,
2013-04-09 18:30:00,37.0,35.7,30.09,NE,38,3.0,3.0,95,0.04,,,0.19,Wunderground v.1.15,2013-04-09 22:30:00,
2013-04-09 18:35:00,37.2,36.2,30.10,NW,324,1.0,3.0,96,0.04,,,0.19,Wunderground v.1.15,2013-04-09 22:35:00,
2013-04-09 18:40:00,37.2,36.2,30.09,NW,319,2.0,2.0,96,0.00,,,0.19,Wunderground v.1.15,2013-04-09 22:40:00,
2013-04-09 18:45:00,37.3,36.3,30.09,East,80,2.0,2.0,96,0.00,,,0.20,Wunderground v.1.15,2013-04-09 22:45:00,
2013-04-09 18:55:00,37.2,36.2,30.10,NNW,348,1.0,2.0,96,0.00,,,0.20,Wunderground v.1.15,2013-04-09 22:55:00,
2013-04-09 19:00:00,37.2,36.2,30.11,NW,321,1.0,1.0,96,0.00,,,0.20,Wunderground v.1.15,2013-04-09 23:00:00,
2013-04-09 19:05:00,37.1,36.1,30.11,NNW,345,1.0,2.0,96,0.00,,,0.20,Wunderground v.1.15,2013-04-09 23:05:00,
2013-04-09 19:10:00,36.9,35.6,30.11,NNW,327,2.0,2.0,95,0.00,,,0.20,Wunderground v.1.15,2013-04-09 23:10:00,
2013-04-09 19:15:00,36.9,35.6,30.10,NNW,340,2.0,2.0,95,0.00,,,0.20,Wunderground v.1.15,2013-04-09 23:15:00,
2013-04-09 19:20:00,36.8,35.5,30.10,NNW,334,2.0,2.0,95,0.00,,,0.20,Wunderground v.1.15,2013-04-09 23:20:00,
2013-04-09 19:30:00,36.7,35.4,30.10,NW,310,1.0,1.0,95,0.00,,,0.20,Wunderground v.1.15,2013-04-09 23:30:00,
2013-04-09 19:35:00,36.6,35.3,30.11,NNW,340,2.0,2.0,95,0.00,,,0.20,Wunderground v.1.15,2013-04-09 23:35:00,
2013-04-09 19:40:00,36.6,35.3,30.11,NNW,333,1.0,1.0,95,0.00,,,0.20,Wunderground v.1.15,2013-04-09 23:40:00,
2013-04-09 19:45:00,36.5,35.2,30.11,NNW,341,1.0,7.0,95,0.00,,,0.20,Wunderground v.1.15,2013-04-09 23:45:00,
2013-04-09 19:50:00,36.4,35.1,30.11,NNW,347,2.0,5.0,95,0.00,,,0.20,Wunderground v.1.15,2013-04-09 23:50:00,
2013-04-09 19:55:00,36.3,35.0,30.10,NW,311,3.0,5.0,95,0.00,,,0.20,Wunderground v.1.15,2013-04-09 23:55:00,
2013-04-09 20:00:00,36.2,34.9,30.11,NNW,342,3.0,3.0,95,0.00,,,0.20,Wunderground v.1.15,2013-04-10 00:00:00,
2013-04-09 20:05:00,36.1,34.8,30.11,NNW,342,2.0,3.0,95,0.00,,,0.20,Wunderground v.1.15,2013-04-10 00:05:00,
2013-04-09 20:10:00,36.1,34.8,30.11,North,355,1.0,1.0,95,0.00,,,0.20,Wunderground v.1.15,2013-04-10 00:10:00,
2013-04-09 20:15:00,36.1,34.8,30.12,NNW,343,0.0,3.0,95,0.00,,,0.20,Wunderground v.1.15,2013-04-10 00:15:00,
2013-04-09 20:25:00,36.0,34.7,30.12,NNW,329,1.0,2.0,95,0.00,,,0.20,Wunderground v.1.15,2013-04-10 00:25:00,
2013-04-09 20:30:00,36.0,34.7,30.12,NNW,333,0.0,2.0,95,0.00,,,0.20,Wunderground v.1.15,2013-04-10 00:30:00,
2013-04-09 20:35:00,36.0,34.7,30.12,NNW,333,0.0,2.0,95,0.00,,,0.20,Wunderground v.1.15,2013-04-10 00:35:00,
2013-04-09 20:45:00,35.9,34.6,30.13,NNW,330,1.0,4.0,95,0.00,,,0.20,Wunderground v.1.15,2013-04-10 00:45:00,
2013-04-09 20:50:00,35.8,34.5,30.14,NW,324,2.0,2.0,95,0.00,,,0.20,Wunderground v.1.15,2013-04-10 00:50:00,
2013-04-09 20:55:00,35.8,34.5,30.14,NW,319,2.0,2.0,95,0.00,,,0.20,Wunderground v.1.15,2013-04-10 00:55:00,
2013-04-09 21:00:00,35.8,34.5,30.14,NNW,329,2.0,4.0,95,0.00,,,0.20,Wunderground v.1.15,2013-04-10 01:00:00,
2013-04-09 21:10:00,35.7,34.4,30.13,NNW,346,4.0,6.0,95,0.00,,,0.20,Wunderground v.1.15,2013-04-10 01:10:00,
2013-04-09 21:15:00,35.6,34.3,30.13,NW,325,3.0,6.0,95,0.00,,,0.20,Wunderground v.1.15,2013-04-10 01:15:00,
2013-04-09 21:20:00,35.5,34.2,30.13,NNW,344,2.0,5.0,95,0.00,,,0.20,Wunderground v.1.15,2013-04-10 01:20:00,
2013-04-09 21:25:00,35.5,34.2,30.13,NNW,341,2.0,5.0,95,0.00,,,0.20,Wunderground v.1.15,2013-04-10 01:25:00,
2013-04-09 21:30:00,35.5,34.2,30.13,NNW,344,2.0,2.0,95,0.00,,,0.20,Wunderground v.1.15,2013-04-10 01:30:00,
2013-04-09 21:40:00,35.3,33.7,30.14,NNW,346,1.0,2.0,94,0.00,,,0.20,Wunderground v.1.15,2013-04-10 01:40:00,
2013-04-09 21:45:00,35.2,33.6,30.14,NNW,329,1.0,2.0,94,0.00,,,0.20,Wunderground v.1.15,2013-04-10 01:45:00,
2013-04-09 21:55:00,35.0,33.4,30.14,NW,319,1.0,2.0,94,0.00,,,0.20,Wunderground v.1.15,2013-04-10 01:55:00,
2013-04-09 22:00:00,34.9,33.3,30.15,NNW,333,1.0,2.0,94,0.00,,,0.20,Wunderground v.1.15,2013-04-10 02:00:00,
2013-04-09 22:05:00,34.7,33.2,30.15,NW,318,2.0,2.0,94,0.00,,,0.20,Wunderground v.1.15,2013-04-10 02:05:00,
2013-04-09 22:15:00,34.4,32.9,30.14,NNW,332,2.0,8.0,94,0.00,,,0.20,Wunderground v.1.15,2013-04-10 02:15:00,
2013-04-09 22:20:00,34.4,32.9,30.15,NNW,334,2.0,5.0,94,0.00,,,0.20,Wunderground v.1.15,2013-04-10 02:20:00,
2013-04-09 22:25:00,34.4,32.9,30.15,WNW,294,3.0,5.0,94,0.00,,,0.20,Wunderground v.1.15,2013-04-10 02:25:00,
2013-04-09 22:30:00,34.4,32.9,30.16,NNW,344,3.0,6.0,94,0.00,,,0.20,Wunderground v.1.15,2013-04-10 02:30:00,
2013-04-09 22:35:00,34.4,32.9,30.16,NNW,335,3.0,6.0,94,0.00,,,0.20,Wunderground v.1.15,2013-04-10 02:35:00,
2013-04-09 22:45:00,34.1,32.6,30.15,NW,316,4.0,6.0,94,0.00,,,0.20,Wunderground v.1.15,2013-04-10 02:45:00,
2013-04-09 22:50:00,33.9,32.1,30.15,NNE,17,4.0,4.0,93,0.00,,,0.20,Wunderground v.1.15,2013-04-10 02:50:00,
2013-04-09 22:55:00,33.7,31.9,30.15,NW,305,4.0,4.0,93,0.00,,,0.20,Wunderground v.1.15,2013-04-10 02:55:00,
2013-04-09 23:00:00,33.5,31.7,30.15,NNW,333,3.0,7.0,93,0.00,,,0.20,Wunderground v.1.15,2013-04-10 03:00:00,
2013-04-09 23:05:00,33.3,31.5,30.15,WNW,303,2.0,7.0,93,0.00,,,0.20,Wunderground v.1.15,2013-04-10 03:05:00,
2013-04-09 23:10:00,33.1,31.3,30.15,NW,324,3.0,5.0,93,0.00,,,0.20,Wunderground v.1.15,2013-04-10 03:10:00,
2013-04-09 23:20:00,32.7,30.6,30.15,NNW,344,2.0,2.0,92,0.00,,,0.20,Wunderground v.1.15,2013-04-10 03:20:00,
2013-04-09 23:25:00,32.6,30.5,30.15,NW,306,2.0,2.0,92,0.00,,,0.20,Wunderground v.1.15,2013-04-10 03:25:00,
2013-04-09 23:30:00,32.5,30.4,30.15,NNW,331,2.0,2.0,92,0.00,,,0.20,Wunderground v.1.15,2013-04-10 03:30:00,
2013-04-09 23:35:00,32.4,30.3,30.14,NNW,327,2.0,2.0,92,0.00,,,0.20,Wunderground v.1.15,2013-04-10 03:35:00,
2013-04-09 23:40:00,32.3,30.2,30.14,NW,325,1.0,1.0,92,0.00,,,0.20,Wunderground v.1.15,2013-04-10 03:40:00,
2013-04-09 23:50:00,32.2,30.4,30.15,WNW,289,2.0,2.0,93,0.00,,,0.20,Wunderground v.1.15,2013-04-10 03:50:00,
2013-04-09 23:55:00,32.2,30.4,30.15,NNW,329,2.0,2.0,93,0.00,,,0.20,Wunderground v.1.15,2013-04-10 03:55:00,